| time (UTC) | temp C | wind direction | speed KPH | gust KPH | rain 1hr cm | rain 24hr cm | rain mn cm | humidity % | barometer mb |
| 20260505002111 | 8 | 135 | 6.4 | 8.0 | 0.00 | 0.00 | 0.00 | 94 | 1017.0 |
| 20260505001110 | 8 | 143 | 6.4 | 8.0 | 0.00 | 0.00 | 0.00 | 94 | 1017.2 |
| 20260505000109 | 8 | 142 | 4.8 | 6.4 | 0.00 | 0.00 | 0.00 | 95 | 1017.1 |
| 20260504235107 | 8 | 117 | 6.4 | 8.0 | 0.00 | 0.00 | 0.00 | 95 | 1017.2 |
| 20260504234106 | 8 | 147 | 6.4 | 8.0 | 0.00 | 0.00 | 0.00 | 94 | 1017.4 |
| 20260504233106 | 8 | 149 | 8.0 | 9.7 | 0.00 | 0.00 | 0.00 | 94 | 1017.4 |
| 20260504232104 | 8 | 146 | 8.0 | 9.7 | 0.00 | 0.00 | 0.00 | 94 | 1017.6 |
| 20260504231103 | 8 | 154 | 8.0 | 9.7 | 0.00 | 0.00 | 0.00 | 94 | 1017.8 |
| 20260504225120 | 9 | 138 | 8.0 | 9.7 | 0.00 | 0.00 | 0.00 | 94 | 1017.7 |
| 20260504224120 | 9 | 136 | 6.4 | 9.7 | 0.00 | 0.00 | 0.00 | 94 | 1017.7 |
| 20260504223058 | 9 | 144 | 8.0 | 9.7 | 0.00 | 0.00 | 0.00 | 95 | 1017.9 |
| 20260504222117 | 9 | 124 | 6.4 | 8.0 | 0.00 | 0.00 | 0.00 | 95 | 1017.9 |
| 20260504221057 | 9 | 121 | 4.8 | 6.4 | 0.00 | 0.00 | 0.00 | 94 | 1018.0 |
| 20260504220055 | 9 | 101 | 6.4 | 8.0 | 0.00 | 0.00 | 0.00 | 94 | 1018.1 |
| 20260504215053 | 10 | 114 | 4.8 | 8.0 | 0.00 | 0.00 | 0.00 | 93 | 1018.0 |
| 20260504214112 | 10 | 139 | 6.4 | 8.0 | 0.00 | 0.00 | 0.00 | 93 | 1018.0 |
| 20260504213051 | 10 | 130 | 4.8 | 6.4 | 0.00 | 0.00 | 0.00 | 92 | 1018.2 |
| 20260504212050 | 10 | 158 | 4.8 | 6.4 | 0.00 | 0.00 | 0.00 | 91 | 1018.2 |
| 20260504211049 | 10 | 157 | 3.2 | 4.8 | 0.00 | 0.00 | 0.00 | 92 | 1018.3 |
| 20260504210109 | 11 | 136 | 4.8 | 6.4 | 0.00 | 0.00 | 0.00 | 92 | 1018.6 |
| 20260504205047 | 11 | 124 | 4.8 | 6.4 | 0.00 | 0.00 | 0.00 | 91 | 1018.6 |
| 20260504204045 | 11 | 139 | 4.8 | 6.4 | 0.00 | 0.00 | 0.00 | 90 | 1018.7 |
| 20260504203044 | 11 | 124 | 3.2 | 6.4 | 0.00 | 0.00 | 0.00 | 90 | 1018.6 |
| 20260504202044 | 11 | 132 | 3.2 | 4.8 | 0.00 | 0.00 | 0.00 | 90 | 1018.8 |
| 20260504201043 | 11 | 131 | 4.8 | 6.4 | 0.00 | 0.00 | 0.00 | 90 | 1018.6 |
| 20260504200041 | 11 | 125 | 3.2 | 4.8 | 0.00 | 0.00 | 0.00 | 90 | 1018.6 |
| 20260504195040 | 11 | 134 | 1.6 | 3.2 | 0.00 | 0.00 | 0.00 | 89 | 1018.6 |
| 20260504194058 | 11 | 125 | 1.6 | 3.2 | 0.00 | 0.00 | 0.00 | 87 | 1018.6 |
| 20260504193037 | 12 | 97 | 1.6 | 3.2 | 0.00 | 0.00 | 0.00 | 87 | 1018.4 |
| 20260504192036 | 12 | 101 | 3.2 | 4.8 | 0.00 | 0.00 | 0.00 | 85 | 1018.4 |
| 20260504191035 | 12 | 125 | 3.2 | 4.8 | 0.00 | 0.00 | 0.00 | 83 | 1018.4 |
| 20260504190033 | 12 | 100 | 4.8 | 4.8 | 0.00 | 0.00 | 0.00 | 83 | 1018.4 |
| 20260504185032 | 12 | 100 | 1.6 | 3.2 | 0.00 | 0.00 | 0.00 | 84 | 1018.5 |
| 20260504184031 | 12 | 172 | 1.6 | 8.0 | 0.00 | 0.00 | 0.00 | 83 | 1018.5 |
| 20260504183051 | 12 | 97 | 3.2 | 4.8 | 0.00 | 0.00 | 0.00 | 84 | 1018.5 |
| 20260504182029 | 12 | 77 | 3.2 | 4.8 | 0.00 | 0.00 | 0.00 | 86 | 1018.6 |
| 20260504181028 | 12 | 91 | 4.8 | 6.4 | 0.00 | 0.00 | 0.00 | 84 | 1018.6 |
| 20260504180026 | 12 | 86 | 4.8 | 6.4 | 0.00 | 0.00 | 0.00 | 85 | 1018.7 |
| 20260504175045 | 12 | 36 | 1.6 | 6.4 | 0.00 | 0.00 | 0.00 | 85 | 1018.8 |
| 20260504174024 | 12 | 245 | 1.6 | 4.8 | 0.00 | 0.00 | 0.00 | 84 | 1018.9 |
| 20260504173023 | 12 | 265 | 4.8 | 11.3 | 0.00 | 0.00 | 0.00 | 84 | 1018.8 |
| 20260504172022 | 12 | 280 | 9.7 | 12.9 | 0.00 | 0.00 | 0.00 | 83 | 1018.9 |
| 20260504171042 | 13 | 243 | 6.4 | 11.3 | 0.00 | 0.00 | 0.00 | 83 | 1018.9 |
| 20260504160112 | 13 | 272 | 6.4 | 14.5 | 0.00 | 0.00 | 0.00 | 87 | 1018.9 |
| 20260504151127 | 15 | 233 | 12.9 | 22.5 | 0.00 | 0.00 | 0.00 | 78 | 1019.0 |
| 20260504150105 | 15 | 254 | 12.9 | 22.5 | 0.00 | 0.00 | 0.00 | 76 | 1018.6 |
| 20260504141100 | 20 | 337 | 8.0 | 14.5 | 0.00 | 0.00 | 0.00 | 48 | 1017.5 |
| 20260504081018 | 15 | 45 | 3.2 | 6.4 | 0.00 | 0.00 | 0.00 | 63 | 1019.7 |
| 20260504070110 | 13 | 88 | 4.8 | 6.4 | 0.00 | 0.00 | 0.00 | 75 | 1019.8 |
| 20260504045055 | 11 | 147 | 4.8 | 11.3 | 0.00 | 0.00 | 0.00 | 86 | 1019.7 |
| 20260504044053 | 11 | 145 | 9.7 | 12.9 | 0.00 | 0.00 | 0.00 | 87 | 1019.6 |
| 20260504043052 | 11 | 143 | 9.7 | 12.9 | 0.00 | 0.00 | 0.00 | 87 | 1019.8 |
| 20260504042051 | 11 | 166 | 9.7 | 14.5 | 0.00 | 0.00 | 0.00 | 87 | 1019.8 |
| 20260504041049 | 10 | 146 | 8.0 | 12.9 | 0.00 | 0.00 | 0.00 | 88 | 1019.7 |
| 20260504040048 | 11 | 160 | 8.0 | 9.7 | 0.00 | 0.00 | 0.00 | 88 | 1019.7 |
| 20260504035048 | 10 | 62 | 9.7 | 14.5 | 0.00 | 0.00 | 0.00 | 89 | 1019.8 |
| 20260504034046 | 10 | 102 | 3.2 | 6.4 | 0.00 | 0.00 | 0.00 | 88 | 1020.1 |
| 20260504033045 | 11 | 144 | 1.6 | 8.0 | 0.00 | 0.00 | 0.00 | 88 | 1020.2 |
| 20260504032044 | 11 | 159 | 6.4 | 9.7 | 0.00 | 0.00 | 0.00 | 88 | 1020.1 |
| 20260504031043 | 11 | 145 | 4.8 | 8.0 | 0.00 | 0.00 | 0.00 | 88 | 1020.2 |
| 20260504030041 | 11 | 163 | 4.8 | 6.4 | 0.00 | 0.00 | 0.00 | 88 | 1020.3 |
| 20260504025040 | 11 | 145 | 6.4 | 9.7 | 0.00 | 0.00 | 0.00 | 89 | 1020.2 |
| 20260504024059 | 11 | 113 | 6.4 | 6.4 | 0.00 | 0.00 | 0.00 | 88 | 1020.4 |
| 20260504023038 | 10 | 141 | 6.4 | 9.7 | 0.00 | 0.00 | 0.00 | 89 | 1020.3 |
| 20260504022036 | 11 | 131 | 8.0 | 9.7 | 0.00 | 0.00 | 0.00 | 89 | 1020.4 |
| 20260504021035 | 11 | 168 | 8.0 | 9.7 | 0.00 | 0.00 | 0.00 | 88 | 1020.2 |
| 20260504020034 | 11 | 159 | 6.4 | 8.0 | 0.00 | 0.00 | 0.00 | 89 | 1020.3 |
| 20260504015054 | 11 | 129 | 6.4 | 9.7 | 0.00 | 0.00 | 0.00 | 89 | 1020.3 |
| 20260504014032 | 11 | 116 | 4.8 | 6.4 | 0.00 | 0.00 | 0.00 | 89 | 1020.4 |
| 20260504013031 | 11 | 136 | 4.8 | 6.4 | 0.00 | 0.00 | 0.00 | 88 | 1020.3 |
| 20260504012029 | 11 | 130 | 6.4 | 9.7 | 0.00 | 0.00 | 0.00 | 88 | 1020.4 |
| 20260504011028 | 11 | 125 | 6.4 | 8.0 | 0.00 | 0.00 | 0.00 | 88 | 1020.3 |
| 20260504010027 | 11 | 125 | 4.8 | 8.0 | 0.00 | 0.00 | 0.00 | 88 | 1020.4 |
| 20260504005027 | 11 | 133 | 6.4 | 9.7 | 0.00 | 0.00 | 0.00 | 89 | 1020.3 |
| 20260504004024 | 11 | 146 | 4.8 | 4.8 | 0.00 | 0.00 | 0.00 | 89 | 1020.5 |
| 20260504003043 | 11 | 116 | 6.4 | 9.7 | 0.00 | 0.00 | 0.00 | 89 | 1020.4 |